Home > Weather > Río Gallegos > Past weeks

Flag for Argentina Weather for the Past 2 Weeks in Río Gallegos, Santa Cruz, Argentina

Now
37 °F

Clear.


Feels Like: 35 °F
Forecast: N/A
Wind: 3 mph from Northwest

Location: Rio Gallegos Aerodrome

Current Time: May 4, 2016 at 8:28:21 PM

Latest Report: May 4, 2016 at 8:00 PM


Visibility: 10 mi

Pressure: 30.18 "Hg

Humidity: 70%

Dew Point: 28 °F

Location of Río GallegosLocation

Historic Weather in Río Gallegos — Graph

°F

Río Gallegos Temperature Yesterday

Maximum temperature yesterday: 50 °F (at 4:00 PM)
Minimum temperature yesterday: 30 °F (at 2:00 AM)
Average temperature yesterday: 38 °F

High & Low Weather Summary for the Past Weeks

 TemperatureHumidityPressure
High57 °F (Apr 29, 4:00 PM)100% (Apr 20, 2:00 AM)30.45 "Hg (Apr 20, 2:00 AM)
Low19 °F (Apr 29, 9:00 AM)28% (Apr 29, 5:00 PM)29.15 "Hg (Apr 20, 6:00 AM)
Average38 °F71%29.96 "Hg
* Reported Apr 19 6:00 PM — May 4 6:00 PM, Río Gallegos, Weather by CustomWeather, © 2016

Note: Actual official high and low records may vary slightly from our data, if they occured in-between our weather recording intervals... More about our weather records

Advertising

Río Gallegos Weather History for the Previous 24 Hours

Scroll right to see more
 ConditionsComfort  
Time TempWeatherWind HumidityBarometerVisibility
6:00 PM
Wed, May 4
46 °FClear.7 mph53%30.15 "Hg10 mi
5:00 PM50 °FPassing clouds.9 mph47%30.15 "HgN/A
4:00 PM52 °FPassing clouds.9 mph44%30.12 "HgN/A
3:00 PM52 °FPassing clouds.13 mph44%30.12 "HgN/A
2:00 PM50 °FSunny.14 mph43%30.12 "Hg10 mi
1:00 PM48 °FSunny.17 mph54%30.12 "Hg10 mi
12:00 PM45 °FSunny.20 mph61%30.09 "Hg10 mi
11:00 AM39 °FSunny.14 mph75%30.09 "Hg10 mi
10:00 AM34 °FSunny.8 mph87%30.09 "Hg10 mi
9:00 AM34 °FSunny.12 mph87%30.07 "Hg10 mi
8:00 AM36 °FSunny.14 mph81%30.04 "Hg10 mi
7:00 AM36 °FClear.16 mph81%30.01 "Hg10 mi
6:00 AM37 °FClear.21 mph81%30.01 "Hg10 mi
5:00 AM37 °FClear.17 mph70%29.98 "Hg10 mi
4:00 AM36 °FClear.21 mph81%29.98 "Hg10 mi
3:00 AM37 °FClear.16 mph75%29.95 "Hg10 mi
2:00 AM36 °FClear.12 mph81%29.95 "Hg10 mi
1:00 AM37 °FClear.10 mph81%29.95 "Hg10 mi
12:00 AM37 °FClear.15 mph81%29.95 "Hg10 mi
11:00 PM
Tue, May 3
39 °FClear.17 mph70%29.95 "Hg10 mi
10:00 PM39 °FClear.16 mph75%29.95 "Hg10 mi
9:00 PM39 °FClear.15 mph70%29.95 "Hg10 mi
8:00 PM41 °FClear.18 mph66%29.95 "Hg10 mi
Weather by CustomWeather, © 2016

See weather overviewHow to use our weather pages